TimeEST,TemperatureF,Dew PointF,Humidity,Sea Level PressureIn,VisibilityMPH,Wind Direction,Wind SpeedMPH,Gust SpeedMPH,PrecipitationIn,Events,Conditions,WindDirDegrees,DateUTC
12:15 AM,48.2,39.2,71,29.81,10.0,West,17.3,26.5,0.00,,Clear,280,2014-01-03 05:15:00
12:35 AM,46.4,37.4,71,29.82,10.0,WNW,20.7,26.5,0.00,,Clear,290,2014-01-03 05:35:00
12:55 AM,44.6,33.8,66,29.83,10.0,West,19.6,26.5,0.00,,Clear,280,2014-01-03 05:55:00
1:15 AM,44.6,30.2,57,29.84,10.0,WNW,16.1,28.8,0.00,,Clear,290,2014-01-03 06:15:00
1:35 AM,42.8,32.0,66,29.85,10.0,WNW,21.9,29.9,0.00,,Clear,290,2014-01-03 06:35:00
1:55 AM,42.8,32.0,66,29.87,10.0,WNW,18.4,31.1,0.00,,Clear,300,2014-01-03 06:55:00
2:15 AM,41.0,30.2,65,29.90,10.0,WNW,24.2,29.9,0.00,,Clear,300,2014-01-03 07:15:00
2:35 AM,39.2,28.4,65,29.91,10.0,WNW,25.3,32.2,0.00,,Clear,300,2014-01-03 07:35:00
2:55 AM,39.2,28.4,65,29.93,10.0,WNW,26.5,34.5,0.00,,Partly Cloudy,300,2014-01-03 07:55:00
3:15 AM,37.4,26.6,65,29.95,10.0,WNW,27.6,36.8,0.00,,Clear,300,2014-01-03 08:15:00
3:35 AM,35.6,24.8,65,29.96,10.0,WNW,21.9,33.4,0.00,,Clear,300,2014-01-03 08:35:00
3:55 AM,35.6,23.0,60,29.98,10.0,WNW,27.6,39.1,0.00,,Clear,300,2014-01-03 08:55:00
4:15 AM,35.6,23.0,60,30.01,10.0,NW,24.2,35.7,0.00,,Clear,310,2014-01-03 09:15:00
4:35 AM,33.8,21.2,60,30.03,10.0,WNW,20.7,27.6,0.00,,Clear,300,2014-01-03 09:35:00
4:55 AM,33.8,21.2,60,30.05,10.0,WNW,20.7,32.2,0.00,,Clear,290,2014-01-03 09:55:00
5:15 AM,33.8,21.2,60,30.06,10.0,WNW,16.1,28.8,0.00,,Clear,290,2014-01-03 10:15:00
5:35 AM,33.8,21.2,60,30.07,10.0,WNW,17.3,27.6,0.00,,Clear,300,2014-01-03 10:35:00
5:55 AM,32.0,19.4,60,30.08,10.0,WNW,19.6,26.5,0.00,,Clear,300,2014-01-03 10:55:00
6:15 AM,32.0,19.4,60,30.10,10.0,NW,13.8,20.7,0.00,,Clear,310,2014-01-03 11:15:00
6:35 AM,32.0,19.4,60,30.11,10.0,NW,12.7,21.9,0.00,,Clear,310,2014-01-03 11:35:00
6:55 AM,32.0,19.4,60,30.12,10.0,NW,13.8,20.7,0.00,,Clear,320,2014-01-03 11:55:00
7:15 AM,32.0,19.4,60,30.14,10.0,NW,11.5,23.0,0.00,,Clear,310,2014-01-03 12:15:00
7:35 AM,32.0,19.4,60,30.16,10.0,NW,12.7,17.3,0.00,,Clear,320,2014-01-03 12:35:00
7:55 AM,32.0,17.6,55,30.18,10.0,NW,15.0,24.2,0.00,,Clear,320,2014-01-03 12:55:00
8:15 AM,33.8,15.8,48,30.20,10.0,NNW,16.1,19.6,0.00,,Clear,330,2014-01-03 13:15:00
8:35 AM,33.8,14.0,44,30.21,10.0,NW,15.0,24.2,0.00,,Clear,320,2014-01-03 13:35:00
8:55 AM,33.8,14.0,44,30.23,10.0,NNW,12.7,23.0,0.00,,Clear,330,2014-01-03 13:55:00
9:15 AM,35.6,14.0,41,30.23,10.0,NW,16.1,24.2,0.00,,Clear,320,2014-01-03 14:15:00
9:35 AM,35.6,14.0,41,30.25,10.0,NNW,16.1,24.2,0.00,,Clear,330,2014-01-03 14:35:00
9:55 AM,35.6,14.0,41,30.25,10.0,NNW,13.8,24.2,0.00,,Clear,330,2014-01-03 14:55:00
10:15 AM,35.6,12.2,38,30.26,10.0,NW,20.7,28.8,0.00,,Clear,320,2014-01-03 15:15:00
10:35 AM,37.4,14.0,38,30.26,10.0,NNW,18.4,26.5,0.00,,Clear,340,2014-01-03 15:35:00
10:55 AM,37.4,12.2,36,30.27,10.0,North,16.1,26.5,0.00,,Clear,350,2014-01-03 15:55:00
11:15 AM,37.4,12.2,36,30.27,10.0,North,12.7,27.6,0.00,,Clear,350,2014-01-03 16:15:00
11:35 AM,39.2,12.2,33,30.27,10.0,NNW,19.6,25.3,0.00,,Clear,340,2014-01-03 16:35:00
11:55 AM,39.2,14.0,36,30.28,10.0,North,12.7,23.0,0.00,,Clear,350,2014-01-03 16:55:00
12:15 PM,39.2,12.2,33,30.28,10.0,North,13.8,26.5,0.00,,Clear,350,2014-01-03 17:15:00
12:35 PM,39.2,14.0,36,30.28,10.0,NNW,11.5,23.0,0.00,,Clear,340,2014-01-03 17:35:00
12:55 PM,39.2,12.2,33,30.27,10.0,North,17.3,24.2,0.00,,Clear,10,2014-01-03 17:55:00
1:15 PM,39.2,12.2,33,30.28,10.0,North,15.0,21.9,0.00,,Clear,360,2014-01-03 18:15:00
1:35 PM,39.2,12.2,33,30.28,10.0,North,17.3,24.2,0.00,,Clear,360,2014-01-03 18:35:00
1:55 PM,41.0,12.2,31,30.28,10.0,NNW,16.1,19.6,0.00,,Clear,330,2014-01-03 18:55:00
2:15 PM,41.0,14.0,33,30.29,10.0,North,15.0,19.6,0.00,,Clear,360,2014-01-03 19:15:00
2:35 PM,41.0,12.2,31,30.29,10.0,North,15.0,20.7,0.00,,Clear,350,2014-01-03 19:35:00
2:55 PM,41.0,12.2,31,30.30,10.0,NNW,12.7,21.9,0.00,,Clear,340,2014-01-03 19:55:00
3:15 PM,41.0,12.2,31,30.30,10.0,North,13.8,19.6,0.00,,Clear,360,2014-01-03 20:15:00
3:35 PM,41.0,14.0,33,30.30,10.0,North,11.5,18.4,0.00,,Clear,350,2014-01-03 20:35:00
3:55 PM,41.0,12.2,31,30.31,10.0,North,15.0,19.6,0.00,,Clear,10,2014-01-03 20:55:00
4:15 PM,41.0,14.0,33,30.32,10.0,North,10.4,17.3,0.00,,Clear,350,2014-01-03 21:15:00
4:35 PM,39.2,14.0,36,30.33,10.0,North,9.2,-,0.00,,Clear,350,2014-01-03 21:35:00
4:55 PM,39.2,14.0,36,30.35,10.0,North,8.1,-,0.00,,Clear,10,2014-01-03 21:55:00
5:15 PM,39.2,14.0,36,30.36,10.0,North,8.1,-,0.00,,Clear,360,2014-01-03 22:15:00
5:35 PM,37.4,14.0,38,30.37,10.0,Calm,Calm,-,0.00,,Clear,0,2014-01-03 22:35:00
5:55 PM,37.4,15.8,41,30.38,10.0,North,3.5,-,0.00,,Clear,360,2014-01-03 22:55:00
6:15 PM,35.6,17.6,48,30.39,10.0,North,4.6,-,0.00,,Clear,10,2014-01-03 23:15:00
6:35 PM,35.6,17.6,48,30.39,10.0,North,5.8,-,0.00,,Clear,360,2014-01-03 23:35:00
6:55 PM,35.6,17.6,48,30.40,10.0,North,6.9,-,0.00,,Clear,360,2014-01-03 23:55:00
7:15 PM,35.6,19.4,52,30.41,10.0,North,4.6,-,0.00,,Clear,10,2014-01-04 00:15:00
7:35 PM,35.6,19.4,52,30.41,10.0,North,3.5,-,0.00,,Clear,10,2014-01-04 00:35:00
7:55 PM,33.8,19.4,56,30.43,10.0,NNE,5.8,-,0.00,,Clear,20,2014-01-04 00:55:00
8:15 PM,35.6,17.6,48,30.43,10.0,NNE,5.8,-,0.00,,Clear,20,2014-01-04 01:15:00
8:35 PM,35.6,17.6,48,30.43,10.0,NNE,5.8,-,0.00,,Clear,20,2014-01-04 01:35:00
8:55 PM,33.8,17.6,52,30.43,10.0,NNE,4.6,-,0.00,,Clear,20,2014-01-04 01:55:00
9:15 PM,33.8,19.4,56,30.44,10.0,Calm,Calm,-,0.00,,Clear,0,2014-01-04 02:15:00
9:35 PM,33.8,19.4,56,30.44,10.0,Calm,Calm,-,0.00,,Clear,0,2014-01-04 02:35:00
9:55 PM,33.8,19.4,56,30.44,10.0,NNE,5.8,-,0.00,,Clear,20,2014-01-04 02:55:00
10:15 PM,33.8,19.4,56,30.44,10.0,NNE,4.6,-,0.00,,Clear,30,2014-01-04 03:15:00
10:35 PM,35.6,19.4,52,30.44,10.0,NNE,6.9,-,0.00,,Clear,30,2014-01-04 03:35:00
10:55 PM,35.6,19.4,52,30.44,10.0,NE,8.1,-,0.00,,Clear,40,2014-01-04 03:55:00
11:15 PM,35.6,17.6,48,30.43,10.0,NNE,6.9,-,0.00,,Clear,30,2014-01-04 04:15:00
11:35 PM,35.6,17.6,48,30.43,10.0,NNE,8.1,-,0.00,,Clear,20,2014-01-04 04:35:00
11:55 PM,33.8,19.4,56,30.43,10.0,North,5.8,-,0.00,,Clear,10,2014-01-04 04:55:00